PIA017 OPST-OPST

Flight info

Callsign PIA017
Flight time 0h 19m
Altitude 9000
Route TOUCH AND GO / TEST FLIGHT
Aircraft A339/H-SADE1E2E3GHIJ3J5M1P2RWXY/LB2D1

Departure

Time 2026-05-06 17:32
Airport Sialkot International Airport (OPST)

Arrival

Time 2026-05-06 17:51
Airport Sialkot International Airport (OPST)
Time Latitude Longitude Altitude Speed Heading
2026-05-06 17:10 32.53475 74.36750 802 ft 0 kts 43°
2026-05-06 17:21 32.53465 74.36738 802 ft 3 kts 28°
2026-05-06 17:21 32.53449 74.36729 802 ft 1 kts
2026-05-06 17:21 32.53441 74.36726 802 ft 1 kts 335°
2026-05-06 17:22 32.53436 74.36727 802 ft 0 kts 316°
2026-05-06 17:24 32.53439 74.36718 802 ft 2 kts 301°
2026-05-06 17:24 32.53438 74.36699 802 ft 3 kts 262°
2026-05-06 17:24 32.53418 74.36656 802 ft 7 kts 235°
2026-05-06 17:24 32.53389 74.36603 802 ft 8 kts 244°
2026-05-06 17:25 32.53402 74.36538 802 ft 8 kts 301°
2026-05-06 17:25 32.53447 74.36481 802 ft 10 kts 313°
2026-05-06 17:25 32.53480 74.36439 802 ft 11 kts 313°
2026-05-06 17:25 32.53555 74.36388 804 ft 10 kts 358°
2026-05-06 17:26 32.53615 74.36425 803 ft 10 kts 39°
2026-05-06 17:26 32.53670 74.36487 803 ft 12 kts 44°
2026-05-06 17:26 32.53733 74.36560 804 ft 15 kts 44°
2026-05-06 17:26 32.53787 74.36622 804 ft 17 kts 41°
2026-05-06 17:27 32.53913 74.36758 802 ft 20 kts 42°
2026-05-06 17:27 32.54027 74.36881 801 ft 23 kts 42°
2026-05-06 17:27 32.54106 74.36967 801 ft 24 kts 43°
2026-05-06 17:27 32.54266 74.37144 802 ft 25 kts 43°
2026-05-06 17:28 32.54351 74.37240 803 ft 25 kts 43°
2026-05-06 17:28 32.54523 74.37428 803 ft 26 kts 42°
2026-05-06 17:28 32.54611 74.37525 804 ft 25 kts 44°
2026-05-06 17:28 32.54688 74.37688 802 ft 21 kts 54°
2026-05-06 17:29 32.54725 74.37708 801 ft 2 kts
2026-05-06 17:29 32.54734 74.37687 801 ft 3 kts 295°
2026-05-06 17:29 32.54721 74.37653 802 ft 5 kts 238°
2026-05-06 17:29 32.54697 74.37616 802 ft 6 kts 230°
2026-05-06 17:30 32.54667 74.37586 803 ft 6 kts 219°
2026-05-06 17:30 32.54658 74.37576 803 ft 0 kts 221°
2026-05-06 17:30 32.54657 74.37575 577 ft 0 kts 221°
2026-05-06 17:30 32.54656 74.37574 577 ft 0 kts 221°
2026-05-06 17:31 32.54565 74.37475 804 ft 54 kts 223°
2026-05-06 17:31 32.54078 74.36934 801 ft 136 kts 223°
2026-05-06 17:31 32.53227 74.35999 932 ft 187 kts 223°
2026-05-06 17:32 32.52229 74.34922 1625 ft 195 kts 221°
2026-05-06 17:32 32.51255 74.33853 2619 ft 187 kts 222°
2026-05-06 17:32 32.50280 74.32772 3311 ft 197 kts 222°
2026-05-06 17:32 32.49244 74.31629 3844 ft 212 kts 223°
2026-05-06 17:33 32.48116 74.30401 4369 ft 228 kts 222°
2026-05-06 17:33 32.46905 74.29103 4817 ft 241 kts 223°
2026-05-06 17:33 32.45493 74.28035 4972 ft 245 kts 199°
2026-05-06 17:33 32.43805 74.27835 5003 ft 247 kts 171°
2026-05-06 17:34 32.42172 74.28459 5000 ft 247 kts 155°
2026-05-06 17:34 32.40632 74.29362 5018 ft 247 kts 153°
2026-05-06 17:34 32.39093 74.30257 5000 ft 247 kts 155°
2026-05-06 17:34 32.37511 74.31086 4999 ft 247 kts 157°
2026-05-06 17:35 32.35930 74.31861 5014 ft 246 kts 157°
2026-05-06 17:35 32.34340 74.32648 5006 ft 247 kts 157°
2026-05-06 17:35 32.32750 74.33397 4992 ft 247 kts 164°
2026-05-06 17:36 32.29534 74.32687 4866 ft 236 kts 220°
2026-05-06 17:36 32.28597 74.31193 4721 ft 222 kts 251°
2026-05-06 17:36 32.28426 74.29444 4540 ft 214 kts 277°
2026-05-06 17:36 32.28791 74.27747 4306 ft 218 kts 291°
2026-05-06 17:37 32.29365 74.25996 4220 ft 232 kts 291°
2026-05-06 17:37 32.29865 74.24196 4112 ft 229 kts 284°
2026-05-06 17:37 32.30299 74.22389 4181 ft 234 kts 293°
2026-05-06 17:37 32.31100 74.20659 4215 ft 240 kts 306°
2026-05-06 17:38 32.32286 74.19299 4208 ft 239 kts 331°
2026-05-06 17:38 32.33882 74.18793 4216 ft 240 kts
2026-05-06 17:38 32.35510 74.19197 4231 ft 241 kts 19°
2026-05-06 17:38 32.37092 74.19878 4215 ft 241 kts 21°
2026-05-06 17:39 32.38655 74.20572 4223 ft 241 kts 22°
2026-05-06 17:39 32.40119 74.21530 4176 ft 241 kts 37°
2026-05-06 17:39 32.41352 74.22878 4123 ft 241 kts 45°
2026-05-06 17:39 32.42547 74.24264 4083 ft 241 kts 44°
2026-05-06 17:40 32.43772 74.25633 3977 ft 243 kts 43°
2026-05-06 17:40 32.45008 74.26955 3769 ft 234 kts 42°
2026-05-06 17:40 32.46210 74.28217 3444 ft 227 kts 41°
2026-05-06 17:40 32.47426 74.29382 3041 ft 222 kts 39°
2026-05-06 17:41 32.48603 74.30526 2623 ft 216 kts 44°
2026-05-06 17:41 32.49671 74.31787 2084 ft 217 kts 49°
2026-05-06 17:41 32.50665 74.33083 1562 ft 207 kts 48°
2026-05-06 17:41 32.51658 74.34280 1079 ft 198 kts 43°
2026-05-06 17:42 32.52621 74.35343 821 ft 179 kts 43°
2026-05-06 17:42 32.53521 74.36329 813 ft 188 kts 43°
2026-05-06 17:42 32.54528 74.37488 1242 ft 208 kts 46°
2026-05-06 17:42 32.55566 74.38745 1913 ft 222 kts 46°
2026-05-06 17:43 32.56702 74.40071 2675 ft 232 kts 45°
2026-05-06 17:43 32.57867 74.41432 3306 ft 238 kts 45°
2026-05-06 17:43 32.59055 74.42823 3789 ft 242 kts 45°
2026-05-06 17:43 32.60251 74.44234 4278 ft 243 kts 45°
2026-05-06 17:44 32.61452 74.45663 4742 ft 246 kts 45°
2026-05-06 17:44 32.62654 74.47108 4951 ft 247 kts 45°
2026-05-06 17:44 32.63856 74.48564 5004 ft 247 kts 45°
2026-05-06 17:44 32.65056 74.50023 5009 ft 246 kts 45°
2026-05-06 17:45 32.66239 74.51458 5014 ft 246 kts 45°
2026-05-06 17:45 32.67484 74.52839 5000 ft 242 kts 33°
2026-05-06 17:45 32.69026 74.53502 5015 ft 234 kts
2026-05-06 17:45 32.70616 74.53192 5016 ft 233 kts 334°
2026-05-06 17:46 32.71855 74.52005 5015 ft 231 kts 304°
2026-05-06 17:46 32.72428 74.50245 4961 ft 228 kts 274°
2026-05-06 17:46 32.72228 74.48447 4825 ft 216 kts 248°
2026-05-06 17:46 32.71455 74.46971 4663 ft 209 kts 225°
2026-05-06 17:47 32.70293 74.45988 4324 ft 211 kts 200°
2026-05-06 17:47 32.68808 74.45828 3838 ft 219 kts 169°
2026-05-06 17:47 32.67324 74.46362 3715 ft 226 kts 157°
2026-05-06 17:47 32.65990 74.47307 3778 ft 226 kts 145°
2026-05-06 17:48 32.64521 74.48005 3838 ft 226 kts 172°
2026-05-06 17:48 32.62971 74.47815 3909 ft 227 kts 200°
2026-05-06 17:48 32.61701 74.46797 3805 ft 222 kts 227°
2026-05-06 17:48 32.60799 74.45337 3550 ft 219 kts 237°
2026-05-06 17:49 32.59964 74.43796 3130 ft 224 kts 233°
2026-05-06 17:49 32.58927 74.42421 2773 ft 225 kts 221°
2026-05-06 17:49 32.57682 74.41302 2357 ft 225 kts 219°
2026-05-06 17:49 32.56615 74.39924 1748 ft 223 kts 231°
2026-05-06 17:50 32.55595 74.38573 1204 ft 214 kts 221°
2026-05-06 17:50 32.54513 74.37427 895 ft 201 kts 223°
2026-05-06 17:50 32.53565 74.36380 806 ft 174 kts 223°
2026-05-06 17:50 32.52981 74.35730 803 ft 51 kts 224°
2026-05-06 17:51 32.52872 74.35607 804 ft 10 kts 224°
2026-05-06 17:51 32.52866 74.35600 804 ft 2 kts 224°
2026-05-06 17:51 32.52857 74.35590 804 ft 4 kts 224°